User: anonymous   Login
Location: Newark
(41.8083°N, 72.2500°W)
Time: 02:50:22
(UTC+00:00)
Language:

Courier 1B Rocket - Orbit

View from above orbital plane
View from above orbital plane
View from above satellite
View from above satellite

Ground track
Ground track

The orbit data is extracted from the following two-line orbital elements,

1 00059U 60013B   21331.46543661  .00000091  00000-0  86885-5 0  9999
2 00059  28.2500  25.9008 0189291  37.9806 323.3926 13.52990511 17800
Epoch (UTC): 27 November 2021 11:10:13
Eccentricity: 0.0189291
inclination: 28.2500°
perigee height: 920 km
apogee height: 1202 km
right ascension of ascending node: 25.9008°
argument of perigee: 37.9806°
revolutions per day: 13.52990511
mean anomaly at epoch: 323.3926°
orbit number at epoch: 1780

The dashed part of the orbit path shows where the satellite is in the earth's shadow,  

DLR